Dewpoint
58 58 58 59 59 59 60 60 60 60 60 59 59 60 60 60 59 59 59 59 58 57
58 58 58 58 59 59 59 58 58 59 59 60 60 60 60 60 59 59 59 59 58 57
59 58 58 58 58 58 58 58 57 58 59 60 60 60 60 60 60 59 59 59 57 57
58 58 58 58 58 57 57 57 57 57 58 58 58 58 58 58 58 58 59 59 58 56
57 58 57 57 57 56 56 56 56 57 56 56 56 57 57 57 57 57 57 57 58 56
58 58 57 57 57 56 56 55 55 55 57 56 57 57 57 57 57 57 57 58 57 56
47 57 58 58 58 57 57 55 53 51 50 50 50 52 55 57 57 57 57 57 57 57
41 42 47 51 49 47 46 46 46 45 43 42 41 40 43 51 56 54 49 46 44 46
37 37 37 40 41 41 41 40 39 38 38 37 37 37 39 47 47 45 44 41 40 39
36 35 34 34 36 37 37 36 35 35 35 34 35 36 37 37 39 38 39 39 38 37
34 34 34 32 32 33 34 34 33 33 33 33 33 34 35 34 35 35 35 35 35 34
32 32 32 32 32 31 31 31 31 32 32 32 33 33 33 33 32 31 32 33 33 33
31 31 30 30 30 31 31 30 30 30 31 32 32 33 33 32 31 30 30 31 32 33
29 29 30 29 29 29 29 29 28 28 29 30 31 32 32 32 30 30 29 29 29 31
Lifted_Index
-6 -6 -5 -5 -4 -3 -3 -4 -4 -4 -3 -2 -1 -1 -1 -1 -1 -1 -1 -0 0 0
-6 -6 -5 -4 -3 -3 -3 -3 -3 -3 -2 -2 -1 -1 -1 -1 -1 -0 -1 -0 0 1
-5 -5 -4 -3 -2 -2 -2 -2 -2 -2 -2 -2 -1 -1 -1 -1 -0 -0 -1 -0 0 1
-4 -4 -3 -2 -1 -1 -1 -2 -2 -2 -2 -1 -1 -1 -0 -0 -0 -0 -0 0 1 1
-2 -2 -2 -1 -1 -1 -1 -2 -2 -2 -1 -1 -1 -0 0 0 0 0 1 1 2 1
-1 -1 -1 -1 -1 -1 -1 -2 -2 -1 -1 -1 -0 0 0 0 0 1 1 2 2 2
-0 -0 -1 -1 -1 -1 -2 -1 -1 -1 -0 0 0 1 1 1 1 1 1 2 2 2
1 1 0 -0 -1 -1 -1 -1 -0 -0 0 1 1 1 1 1 1 1 2 2 2 2
2 2 2 1 -0 -1 -1 -0 0 1 1 2 2 2 2 2 2 2 2 2 2 2
4 4 4 2 1 -0 -0 0 1 1 2 2 2 2 2 2 2 2 2 2 2 3
5 5 6 4 2 0 0 1 1 2 2 2 2 2 1 2 2 2 2 2 3 3
7 7 7 6 5 3 3 2 2 3 3 3 3 2 2 2 2 2 2 3 3 3
10 9 9 8 8 7 6 5 5 5 5 4 4 4 3 3 3 2 2 3 3 4
11 11 10 10 10 9 9 8 7 7 6 6 6 6 5 5 4 3 3 3 4 5